Location: Gradaro
(45.0833°N, 10.8833°E)
Time: 00:25:14
(UTC+00:00)

Cosmos 2263 Rocket - Pass Details

Date: 21 April 2021
Orbit: 824 x 848 km, 71.0° (Epoch: 15 May)

Event Time Altitude Azimuth Distance (km) Brightness Sun altitude
Exits shadow 22:33:28 45° 304° (WNW) 1,108 3.0 -32.0°
Drops below altitude 10° 22:38:47 10° 16° (NNE) 2,437 5.3 -32.1°
Sets 22:41:21 0° 22° (NNE) 3,376 6.1 -32.2°
